Retour au catalogue

COSMOS 2251 DEB

ActifLEO
NORAD 40808·DEBRIS·🇷🇺 Russia

Lancé Jun 16, 1993 depuis Plesetsk Cosmodrome

Loading…

Prochains Passages (prochaines 24 heures)

TLE

FraisSource: Space-Track

Époque: Sep 13, 2026, 15:49 UTC

1 40808U 93036BWM 26256.65965888  .00004357  00000-0  70602-3 0  9994
2 40808  74.0418 332.7481 0010918 304.2739 207.9176 14.71507307676580

Suivez COSMOS 2251 DEB en temps réel avec AllMySat

Download on the App Store